Regional Weather Roundup
Issued by NWS Kansas City/Pleasant Hill, MO

Home | Current Version | Previous Version | Graphics & Text | Print | Product List | Glossary Off
Versions: 1 2 3 4 5 6 7 8 9 10 11 12 13 14 15 16 17 18 19 20 21 22 23 24 25 26 27

000
ASUS43 KEAX 271910
RWREAX

WEATHER ROUNDUP FOR EASTERN KANSAS AND NORTHWEST MISSOURI
NATIONAL WEATHER SERVICE KANSAS CITY/PLEASANT HILL MO
200 PM CDT SAT MAY 27 2017

KSZ040-057-103>105-MOZ028-029-037-043-272000-
...KANSAS CITY METROPOLITAN AREA...

CITY           SKY/WX    TMP DP  RH WIND       PRES   REMARKS
K.C. INTL      CLOUDY    64  60  87 SW8       29.79R
K.C. DOWNTOWN  CLOUDY    67  60  78 NW13G18   29.77R
LEES SUMMIT    CLOUDY    65  59  81 SE10      29.78R
OLATHE - IXD   CLOUDY    65  60  84 SE13      29.80R
OLATHE - OJC   CLOUDY    63  61  93 S10       29.80R
LAWRENCE       CLOUDY    69  62  78 E7        29.79R

$$

MOZ001>008-011>017-020>025-030>033-038>040-044>046-053-054-272000-
...NORTHERN AND CENTRAL MISSOURI...

CITY           SKY/WX    TMP DP  RH WIND       PRES   REMARKS
ST. JOSEPH     CLOUDY    67  63  87 SE3       29.79R
MOSBY            N/A     66  55  68 N8        29.74R
WARRENSBURG    LGT RAIN  59  57  94 NE12G20   29.80F
WHITEMAN AFB   LGT RAIN  62  62 100 E12       29.81F
CLINTON        TSTM      59  57  94 NE17G30   29.79R VSB<1/4
SEDALIA        CLOUDY    71  69  93 N5        29.90R THUNDER
WARSAW         NOT AVBL
CHILLICOTHE      N/A     74  59  59 E5        29.80F
KIRKSVILLE     PTSUNNY   76  62  62 E10       29.84F

$$

MOZ041-047>049-056>058-063>065-088>090-097-272000-
...EASTERN AND SOUTHERN MISSOURI...

CITY           SKY/WX    TMP DP  RH WIND       PRES   REMARKS
ST. LOUIS INTL CLOUDY    80  63  55 SE9       29.86F
SPIRIT OF STL  CLOUDY    76  66  71 E6        29.83F THUNDER
COLUMBIA       TSTM      70  68  93 W7        29.87R FOG
JEFFERSON CITY TSTM      72  64  76 NE6       29.86R
ROLLA          CLOUDY    76  68  76 E8        29.86R
OSAGE BEACH    CLOUDY    78  68  71 NE7       29.84R
SPRINGFIELD    CLOUDY    80  72  76 S13       29.76F
BRANSON        PTSUNNY   84  72  65 S12G18    29.82F
JOPLIN         CLOUDY    80  77  90 N14G22    29.81R THUNDER FOG
WEST PLAINS    MOSUNNY   84  73  69 S12       29.83F HX  90

$$

IAZ060-094-KSZ022-034>040-054-083-096-NEZ052-066-093-272000-
...KANSAS...SOUTHEAST NEBRASKA AND IOWA...

CITY           SKY/WX    TMP DP  RH WIND       PRES   REMARKS
TOPEKA         PTSUNNY   73  62  68 VRB3      29.79S
MANHATTAN      PTSUNNY   74  64  71 N8        29.81F
EMPORIA        MOSUNNY   79  61  53 E12       29.77F
CHANUTE        CLOUDY    77  67  71 E10       29.77R
WICHITA        PTSUNNY   77  60  55 NE10      29.81R
OMAHA          PTSUNNY   71  58  63 NE10      29.87F
LINCOLN        MOSUNNY   70  59  68 NE9       29.88F
FALLS CITY     CLOUDY    68  62  81 N9        29.80F
LAMONI         CLOUDY    70  61  73 VRB5G20   29.82F
DES MOINES     LGT RAIN  64  61  90 N16G22    29.84F

$$





USA.gov is the U.S. government's official web portal to all federal, state and local government web resources and services.